Time,TemperatureF,DewpointF,PressureIn,WindDirection,WindDirectionDegrees,WindSpeedMPH,WindSpeedGustMPH,Humidity,HourlyPrecipIn,Conditions,Clouds,dailyrainin,SoftwareType,DateUTC
2013-03-29 00:09:00,57.2,55.0,30.26,East,88,0.0,3.0,92,0.00,,,0.00,weatherlink.com 1.10,2013-03-29 05:09:00,
2013-03-29 00:24:00,56.6,54.0,30.26,East,96,0.0,1.0,92,0.00,,,0.00,weatherlink.com 1.10,2013-03-29 05:24:00,
2013-03-29 00:39:00,55.7,54.0,30.26,East,96,0.0,0.0,93,0.00,,,0.00,weatherlink.com 1.10,2013-03-29 05:39:00,
2013-03-29 00:54:00,55.3,54.0,30.26,East,96,0.0,1.0,94,0.00,,,0.00,weatherlink.com 1.10,2013-03-29 05:54:00,
2013-03-29 01:10:00,55.3,54.0,30.25,East,96,0.0,0.0,95,0.00,,,0.00,weatherlink.com 1.10,2013-03-29 06:10:00,
2013-03-29 01:25:00,55.2,54.0,30.25,East,96,0.0,0.0,95,0.00,,,0.00,weatherlink.com 1.10,2013-03-29 06:25:00,
2013-03-29 01:41:00,55.7,54.0,30.25,East,96,0.0,1.0,95,0.00,,,0.00,weatherlink.com 1.10,2013-03-29 06:41:00,
2013-03-29 01:56:00,56.4,55.0,30.25,East,80,2.0,3.0,96,0.00,,,0.00,weatherlink.com 1.10,2013-03-29 06:56:00,
2013-03-29 02:11:00,56.7,55.0,30.24,ESE,109,1.0,5.0,95,0.00,,,0.00,weatherlink.com 1.10,2013-03-29 07:11:00,
2013-03-29 02:26:00,56.7,55.0,30.24,SSE,148,1.0,6.0,95,0.00,,,0.00,weatherlink.com 1.10,2013-03-29 07:26:00,
2013-03-29 02:41:00,56.8,55.0,30.24,East,97,2.0,5.0,95,0.00,,,0.00,weatherlink.com 1.10,2013-03-29 07:41:00,
2013-03-29 02:56:00,56.8,55.0,30.23,East,92,2.0,4.0,95,0.00,,,0.00,weatherlink.com 1.10,2013-03-29 07:56:00,
2013-03-29 03:12:00,56.9,55.0,30.23,ENE,70,2.0,4.0,94,0.00,,,0.00,weatherlink.com 1.10,2013-03-29 08:12:00,
2013-03-29 03:27:00,56.7,55.0,30.23,ESE,103,0.0,3.0,94,0.00,,,0.00,weatherlink.com 1.10,2013-03-29 08:27:00,
2013-03-29 03:42:00,56.7,55.0,30.24,SSE,159,1.0,3.0,95,0.00,,,0.00,weatherlink.com 1.10,2013-03-29 08:42:00,
2013-03-29 03:57:00,56.7,55.0,30.24,ESE,119,0.0,3.0,95,0.00,,,0.00,weatherlink.com 1.10,2013-03-29 08:57:00,
2013-03-29 04:12:00,56.3,55.0,30.24,SE,124,0.0,1.0,95,0.00,,,0.00,weatherlink.com 1.10,2013-03-29 09:12:00,
2013-03-29 04:27:00,55.8,54.0,30.24,SE,131,0.0,1.0,95,0.00,,,0.00,weatherlink.com 1.10,2013-03-29 09:27:00,
2013-03-29 04:42:00,55.0,54.0,30.24,SE,131,0.0,1.0,95,0.00,,,0.00,weatherlink.com 1.10,2013-03-29 09:42:00,
2013-03-29 04:57:00,55.0,54.0,30.24,East,91,1.0,1.0,96,0.00,,,0.00,weatherlink.com 1.10,2013-03-29 09:57:00,
2013-03-29 05:13:00,55.6,54.0,30.24,East,99,1.0,2.0,96,0.00,,,0.00,weatherlink.com 1.10,2013-03-29 10:13:00,
2013-03-29 05:28:00,55.5,54.0,30.24,SE,139,1.0,2.0,96,0.00,,,0.00,weatherlink.com 1.10,2013-03-29 10:28:00,
2013-03-29 05:43:00,55.5,54.0,30.24,East,79,2.0,2.0,96,0.00,,,0.00,weatherlink.com 1.10,2013-03-29 10:43:00,
2013-03-29 05:58:00,55.5,54.0,30.25,East,96,1.0,2.0,96,0.00,,,0.00,weatherlink.com 1.10,2013-03-29 10:58:00,
2013-03-29 06:13:00,55.6,54.0,30.25,ENE,76,1.0,2.0,96,0.00,,,0.00,weatherlink.com 1.10,2013-03-29 11:13:00,
2013-03-29 06:28:00,55.4,54.0,30.26,East,91,0.0,1.0,96,0.00,,,0.00,weatherlink.com 1.10,2013-03-29 11:28:00,
2013-03-29 06:44:00,55.7,55.0,30.25,East,98,0.0,2.0,96,0.00,,,0.00,weatherlink.com 1.10,2013-03-29 11:44:00,
2013-03-29 06:59:00,56.1,55.0,30.26,ESE,120,1.0,2.0,96,0.00,,,0.00,weatherlink.com 1.10,2013-03-29 11:59:00,
2013-03-29 07:14:00,56.6,55.0,30.27,ESE,102,4.0,4.0,96,0.00,,,0.00,weatherlink.com 1.10,2013-03-29 12:14:00,
2013-03-29 07:30:00,56.8,56.0,30.27,East,101,0.0,4.0,96,0.00,,,0.00,weatherlink.com 1.10,2013-03-29 12:30:00,
2013-03-29 07:45:00,57.2,56.0,30.27,SE,137,2.0,4.0,96,0.00,,,0.00,weatherlink.com 1.10,2013-03-29 12:45:00,
2013-03-29 08:01:00,57.8,56.0,30.27,SE,131,0.0,4.0,95,0.00,,,0.00,weatherlink.com 1.10,2013-03-29 13:01:00,
2013-03-29 08:16:00,58.7,57.0,30.28,East,79,0.0,4.0,94,0.00,,,0.00,weatherlink.com 1.10,2013-03-29 13:16:00,
2013-03-29 08:31:00,60.3,58.0,30.29,East,100,5.0,5.0,93,0.00,,,0.00,weatherlink.com 1.10,2013-03-29 13:31:00,
2013-03-29 08:47:00,60.7,58.0,30.28,SSE,152,1.0,4.0,91,0.00,,,0.00,weatherlink.com 1.10,2013-03-29 13:47:00,
2013-03-29 09:02:00,61.8,59.0,30.28,East,92,4.0,7.0,89,0.00,,,0.00,weatherlink.com 1.10,2013-03-29 14:02:00,
2013-03-29 09:17:00,62.9,59.0,30.27,SE,129,3.0,8.0,87,0.00,,,0.00,weatherlink.com 1.10,2013-03-29 14:17:00,
2013-03-29 09:33:00,63.8,59.0,30.28,South,173,4.0,9.0,85,0.00,,,0.00,weatherlink.com 1.10,2013-03-29 14:33:00,
2013-03-29 09:48:00,65.2,60.0,30.28,ESE,104,6.0,8.0,82,0.00,,,0.00,weatherlink.com 1.10,2013-03-29 14:48:00,
2013-03-29 10:03:00,65.5,59.0,30.29,SE,136,6.0,11.0,80,0.00,,,0.00,weatherlink.com 1.10,2013-03-29 15:03:00,
2013-03-29 10:19:00,67.0,60.0,30.28,ESE,122,2.0,8.0,79,0.00,,,0.00,weatherlink.com 1.10,2013-03-29 15:19:00,
2013-03-29 10:35:00,68.1,60.0,30.28,South,179,6.0,10.0,76,0.00,,,0.00,weatherlink.com 1.10,2013-03-29 15:35:00,
2013-03-29 10:51:00,68.5,60.0,30.27,SW,233,3.0,14.0,74,0.00,,,0.00,weatherlink.com 1.10,2013-03-29 15:51:00,
2013-03-29 11:06:00,69.3,59.0,30.27,South,188,4.0,11.0,71,0.00,,,0.00,weatherlink.com 1.10,2013-03-29 16:06:00,
2013-03-29 11:21:00,69.7,59.0,30.26,SE,143,9.0,13.0,69,0.00,,,0.00,weatherlink.com 1.10,2013-03-29 16:21:00,
2013-03-29 11:36:00,70.2,59.0,30.26,SW,221,6.0,12.0,67,0.00,,,0.00,weatherlink.com 1.10,2013-03-29 16:36:00,
2013-03-29 11:52:00,71.3,59.0,30.25,South,174,3.0,10.0,65,0.00,,,0.00,weatherlink.com 1.10,2013-03-29 16:52:00,
2013-03-29 12:07:00,70.7,58.0,30.25,SW,225,15.0,15.0,65,0.00,,,0.00,weatherlink.com 1.10,2013-03-29 17:07:00,
2013-03-29 12:22:00,71.4,58.0,30.25,SW,233,10.0,13.0,62,0.00,,,0.00,weatherlink.com 1.10,2013-03-29 17:22:00,
2013-03-29 12:38:00,71.4,58.0,30.24,SSW,200,10.0,15.0,63,0.00,,,0.00,weatherlink.com 1.10,2013-03-29 17:38:00,
2013-03-29 12:53:00,72.2,58.0,30.23,SW,217,8.0,14.0,62,0.00,,,0.00,weatherlink.com 1.10,2013-03-29 17:53:00,
2013-03-29 13:08:00,72.6,59.0,30.23,WSW,249,4.0,16.0,62,0.00,,,0.00,weatherlink.com 1.10,2013-03-29 18:08:00,
2013-03-29 13:24:00,72.3,59.0,30.23,South,182,8.0,22.0,62,0.00,,,0.00,weatherlink.com 1.10,2013-03-29 18:24:00,
2013-03-29 13:39:00,72.6,58.0,30.22,SW,217,3.0,18.0,61,0.00,,,0.00,weatherlink.com 1.10,2013-03-29 18:39:00,
2013-03-29 13:54:00,72.4,58.0,30.21,WSW,245,13.0,16.0,61,0.00,,,0.00,weatherlink.com 1.10,2013-03-29 18:54:00,
2013-03-29 14:09:00,72.8,59.0,30.21,WSW,253,5.0,16.0,61,0.00,,,0.00,weatherlink.com 1.10,2013-03-29 19:09:00,
2013-03-29 14:24:00,73.2,59.0,30.20,SSE,165,13.0,14.0,61,0.00,,,0.00,weatherlink.com 1.10,2013-03-29 19:24:00,
2013-03-29 14:40:00,72.7,59.0,30.19,South,181,5.0,17.0,62,0.00,,,0.00,weatherlink.com 1.10,2013-03-29 19:40:00,
2013-03-29 14:55:00,73.2,59.0,30.19,SSE,159,10.0,15.0,62,0.00,,,0.00,weatherlink.com 1.10,2013-03-29 19:55:00,
2013-03-29 15:10:00,73.0,59.0,30.18,SSE,153,5.0,18.0,62,0.00,,,0.00,weatherlink.com 1.10,2013-03-29 20:10:00,
2013-03-29 15:25:00,72.9,60.0,30.18,SSW,213,18.0,20.0,63,0.00,,,0.00,weatherlink.com 1.10,2013-03-29 20:25:00,
2013-03-29 15:40:00,72.8,59.0,30.17,South,172,6.0,14.0,63,0.00,,,0.00,weatherlink.com 1.10,2013-03-29 20:40:00,
2013-03-29 15:55:00,73.3,60.0,30.16,ESE,115,5.0,15.0,63,0.00,,,0.00,weatherlink.com 1.10,2013-03-29 20:55:00,
2013-03-29 16:11:00,72.6,61.0,30.17,SE,142,9.0,19.0,66,0.00,,,0.00,weatherlink.com 1.10,2013-03-29 21:11:00,
2013-03-29 16:41:00,72.4,59.0,30.17,SW,217,6.0,14.0,63,0.00,,,0.00,weatherlink.com 1.10,2013-03-29 21:41:00,
2013-03-29 16:56:00,71.9,59.0,30.17,SW,229,8.0,16.0,63,0.00,,,0.00,weatherlink.com 1.10,2013-03-29 21:56:00,
2013-03-29 17:12:00,71.8,59.0,30.17,SSW,207,11.0,16.0,64,0.00,,,0.00,weatherlink.com 1.10,2013-03-29 22:12:00,
2013-03-29 17:26:00,71.8,58.0,30.18,SSW,212,7.0,13.0,62,0.00,,,0.00,weatherlink.com 1.10,2013-03-29 22:26:00,
2013-03-29 17:42:00,71.1,59.0,30.18,SW,222,8.0,11.0,65,0.00,,,0.00,weatherlink.com 1.10,2013-03-29 22:42:00,
2013-03-29 17:57:00,70.2,59.0,30.18,SW,225,10.0,16.0,67,0.00,,,0.00,weatherlink.com 1.10,2013-03-29 22:57:00,
2013-03-29 18:12:00,70.1,59.0,30.19,SW,219,9.0,12.0,68,0.00,,,0.00,weatherlink.com 1.10,2013-03-29 23:12:00,
2013-03-29 18:27:00,69.0,59.0,30.19,SSW,208,9.0,12.0,71,0.00,,,0.00,weatherlink.com 1.10,2013-03-29 23:27:00,
2013-03-29 18:43:00,68.6,59.0,30.18,SE,146,6.0,9.0,72,0.00,,,0.00,weatherlink.com 1.10,2013-03-29 23:43:00,
2013-03-29 18:58:00,68.0,59.0,30.19,SSE,156,3.0,7.0,73,0.00,,,0.00,weatherlink.com 1.10,2013-03-29 23:58:00,
2013-03-29 19:13:00,67.0,60.0,30.18,SSE,167,1.0,4.0,78,0.00,,,0.00,weatherlink.com 1.10,2013-03-30 00:13:00,
2013-03-29 19:28:00,66.1,60.0,30.18,SSE,153,2.0,4.0,80,0.00,,,0.00,weatherlink.com 1.10,2013-03-30 00:28:00,
2013-03-29 19:44:00,65.2,60.0,30.19,SSW,203,1.0,6.0,82,0.00,,,0.00,weatherlink.com 1.10,2013-03-30 00:44:00,
2013-03-29 19:59:00,64.6,60.0,30.18,SSE,163,0.0,6.0,84,0.00,,,0.00,weatherlink.com 1.10,2013-03-30 00:59:00,
2013-03-29 20:14:00,64.1,59.0,30.19,SSE,153,1.0,3.0,85,0.00,,,0.00,weatherlink.com 1.10,2013-03-30 01:14:00,
2013-03-29 20:29:00,63.8,60.0,30.19,SSW,195,2.0,3.0,86,0.00,,,0.00,weatherlink.com 1.10,2013-03-30 01:29:00,
2013-03-29 20:45:00,63.4,59.0,30.19,SSW,210,1.0,5.0,87,0.00,,,0.00,weatherlink.com 1.10,2013-03-30 01:45:00,
2013-03-29 21:00:00,63.0,59.0,30.19,SSE,153,0.0,2.0,88,0.00,,,0.00,weatherlink.com 1.10,2013-03-30 02:00:00,
2013-03-29 21:15:00,62.9,60.0,30.19,SSE,149,1.0,6.0,89,0.00,,,0.00,weatherlink.com 1.10,2013-03-30 02:15:00,
2013-03-29 21:30:00,62.9,60.0,30.19,SSE,152,1.0,5.0,89,0.00,,,0.00,weatherlink.com 1.10,2013-03-30 02:30:00,
2013-03-29 21:46:00,62.7,59.0,30.19,SE,137,0.0,1.0,88,0.00,,,0.00,weatherlink.com 1.10,2013-03-30 02:46:00,
2013-03-29 22:00:00,62.3,59.0,30.19,NE,39,0.0,1.0,89,0.00,,,0.00,weatherlink.com 1.10,2013-03-30 03:00:00,
2013-03-29 22:31:00,61.9,59.0,30.19,South,172,1.0,4.0,90,0.00,,,0.00,weatherlink.com 1.10,2013-03-30 03:31:00,
2013-03-29 22:46:00,61.8,59.0,30.19,SE,125,0.0,2.0,90,0.00,,,0.00,weatherlink.com 1.10,2013-03-30 03:46:00,
2013-03-29 23:01:00,61.7,59.0,30.19,East,100,0.0,4.0,91,0.00,,,0.00,weatherlink.com 1.10,2013-03-30 04:01:00,
2013-03-29 23:17:00,61.7,59.0,30.19,SE,144,1.0,3.0,92,0.00,,,0.00,weatherlink.com 1.10,2013-03-30 04:17:00,
2013-03-29 23:32:00,61.6,59.0,30.19,SSE,167,2.0,4.0,92,0.00,,,0.00,weatherlink.com 1.10,2013-03-30 04:32:00,
2013-03-29 23:47:00,61.5,59.0,30.18,ESE,102,0.0,1.0,92,0.00,,,0.00,weatherlink.com 1.10,2013-03-30 04:47:00,